Weather History for GMMX - January, 2013

Change the Weather History Date:

Sunday, January 20, 2013

  Actual Average Record
Temperature  
Mean Temperature 54 °F -  
Max Temperature 66 °F 66 °F 75 °F (2008)
Min Temperature 42 °F 44 °F 37 °F (2003)
Degree Days  
Heating Degree Days 11    
Growing Degree Days 4 (Base 50)    
Moisture  
Dew Point 45 °F    
Average Humidity 76    
Maximum Humidity 100    
Minimum Humidity 35    
Precipitation  
Precipitation 0.00 in 0.05 in - ()
Sea Level Pressure  
Sea Level Pressure 30.06 in    
Wind  
Wind Speed 4 mph ()    
Max Wind Speed 8 mph    
Max Gust Speed -    
Visibility 4.6 miles    
Events      
Averages and records for this station are not official NWS values.
T = Trace of Precipitation, MM = Missing Value Source: Averaged Metar Reports

Daily Weather History Graph

Daily Weather History Graph

Search for Another Location

Airport or City:

Trip Planner

Search our weather history database for the weather conditions in past years. The results will help you decide how hot, cold, wet, or windy it might be!

Date:

Astronomy

Jan. 20, 2013 Rise Set
Actual Time 7:30 AM WET 5:55 PM WET
Civil Twilight 7:04 AM WET 6:21 PM WET
Nautical Twilight 6:35 AM WET 6:51 PM WET
Astronomical Twilight 6:06 AM WET 7:20 PM WET
Moon 12:47 PM WET (1/20) 1:52 AM WET (1/20)
Length of Visible Light 11h 17m
Length of Day
10h 25m
Waxing Gibbous, 64% of the Moon is Illuminated
Jan 20
Waxing Gibbous
Jan 27
Full
Feb 3
Last Quarter
Feb 10
New
Feb 17
First Quarter

Hourly Weather History & Observations

Time (WET) Temp. Windchill Dew Point Humidity Pressure Visibility Wind Dir Wind Speed Gust Speed Precip Events Conditions
12:00 AM 49 °F - 49 °F 100% 30.04 in 5 mi SW 6.9 mph - -   Partly Cloudy
12:00 AM 50.0 °F - 48.2 °F 94% 30.01 in 5.0 mi SW 6.9 mph - N/A   Scattered Clouds
12:30 AM 48.2 °F - 48.2 °F 100% 30.01 in 5.0 mi SW 5.8 mph - N/A   Scattered Clouds
1:00 AM 48.2 °F - 48.2 °F 100% 30.01 in 4.3 mi SW 8.1 mph - N/A   Scattered Clouds
1:30 AM 48.2 °F - 48.2 °F 100% 30.01 in 4.3 mi SW 8.1 mph - N/A   Scattered Clouds
2:00 AM 48.2 °F - 48.2 °F 100% 30.01 in 4.3 mi SW 5.8 mph - N/A   Scattered Clouds
2:30 AM 48.2 °F - 48.2 °F 100% 30.01 in 4.3 mi SW 5.8 mph - N/A   Scattered Clouds
3:00 AM 48 °F - 47 °F 97% 30.05 in 4 mi West 5.8 mph - -   Partly Cloudy
3:00 AM 48.2 °F - 48.2 °F 100% 30.04 in 3.7 mi West 5.8 mph - N/A   Scattered Clouds
3:30 AM 48.2 °F - 48.2 °F 100% 30.04 in 4.3 mi SW 6.9 mph - N/A   Scattered Clouds
4:00 AM 48.2 °F - 46.4 °F 93% 30.01 in 5.0 mi South 6.9 mph - N/A   Scattered Clouds
4:30 AM 48.2 °F - 46.4 °F 93% 30.01 in 5.0 mi Variable 2.3 mph - N/A   Scattered Clouds
5:00 AM 48.2 °F - 46.4 °F 93% 30.01 in 5.0 mi Calm Calm - N/A   Scattered Clouds
5:30 AM 46.4 °F - 46.4 °F 100% 30.01 in 4.3 mi Calm Calm - N/A   Scattered Clouds
6:00 AM 46 °F - 46 °F 98% 30.06 in 4 mi South 2.3 mph - -   Scattered Clouds
6:00 AM 46.4 °F - 44.6 °F 93% 30.01 in 4.3 mi Variable 2.3 mph - N/A   Partly Cloudy
6:30 AM 46.4 °F 42.9 °F 44.6 °F 93% 30.04 in 5.0 mi South 6.9 mph - N/A   Partly Cloudy
7:00 AM 46.4 °F 44.3 °F 44.6 °F 93% 30.04 in 4.3 mi South 4.6 mph - N/A   Partly Cloudy
7:30 AM 44.6 °F - 44.6 °F 100% 30.06 in 4.3 mi Variable 1.2 mph - N/A   Partly Cloudy
8:00 AM 42.8 °F 40.1 °F 42.8 °F 100% 30.06 in 4.3 mi ENE 4.6 mph - N/A   Partly Cloudy
8:30 AM 50.0 °F - 48.2 °F 94% 30.09 in 4.3 mi ESE 2.3 mph - N/A   Partly Cloudy
9:00 AM 55 °F - 48 °F 70% 30.10 in 5 mi East 1.2 mph - -   Scattered Clouds
9:00 AM 55.4 °F - 48.2 °F 77% 30.09 in 5.0 mi Variable 1.2 mph - N/A   Partly Cloudy
9:30 AM 53.6 °F - 48.2 °F 82% 30.09 in 4.3 mi SE 3.5 mph - N/A   Partly Cloudy
10:00 AM 55.4 °F - 48.2 °F 77% 30.12 in 5.0 mi SSE 4.6 mph - N/A   Partly Cloudy
10:30 AM 57.2 °F - 48.2 °F 72% 30.09 in 5.6 mi SE 5.8 mph - N/A   Partly Cloudy
11:00 AM 57.2 °F - 46.4 °F 67% 30.09 in 6.2 mi ESE 4.6 mph - N/A   Scattered Clouds
11:30 AM 59.0 °F - 46.4 °F 63% 30.12 in 6.2 mi East 3.5 mph - N/A   Scattered Clouds
12:00 PM 61 °F - 45 °F 45% 30.09 in 6 mi North 5.8 mph - -   Scattered Clouds
12:00 PM 60.8 °F - 46.4 °F 59% 30.09 in 5.6 mi Variable 4.6 mph - N/A   Scattered Clouds
12:30 PM 62.6 °F - 42.8 °F 48% 30.09 in 5.6 mi Variable 2.3 mph - N/A   Scattered Clouds
1:00 PM 62.6 °F - 44.6 °F 52% 30.06 in 5.6 mi Variable 3.5 mph - N/A   Scattered Clouds
1:30 PM 62.6 °F - 42.8 °F 48% 30.06 in 5.6 mi ENE 4.6 mph - N/A   Scattered Clouds
2:00 PM 62.6 °F - 42.8 °F 48% 30.06 in 5.6 mi NE 4.6 mph - N/A   Scattered Clouds
2:30 PM 64.4 °F - 44.6 °F 49% 30.04 in 5.0 mi Variable 2.3 mph - N/A   Scattered Clouds
3:00 PM 65 °F - 44 °F 35% 30.02 in 5 mi East 1.2 mph - -   Scattered Clouds
3:00 PM 64.4 °F - 42.8 °F 45% 30.04 in 5.0 mi Variable 2.3 mph - N/A   Scattered Clouds
3:30 PM 62.6 °F - 42.8 °F 48% 30.04 in 5.0 mi SSE 4.6 mph - N/A   Scattered Clouds
4:30 PM 64.4 °F - 42.8 °F 45% 30.04 in 4.3 mi Variable 2.3 mph - N/A   Scattered Clouds
5:00 PM 64.4 °F - 44.6 °F 49% 30.04 in 4.3 mi Calm Calm - N/A   Scattered Clouds
5:30 PM 64.4 °F - 44.6 °F 49% 30.04 in 4.3 mi Calm Calm - N/A   Scattered Clouds
6:00 PM 59 °F - 43 °F 43% 30.05 in 4 mi Calm Calm - -   Scattered Clouds
6:00 PM 59.0 °F - 42.8 °F 55% 30.06 in 4.3 mi Calm Calm - N/A   Scattered Clouds
6:30 PM 57.2 °F - 44.6 °F 63% 30.06 in 3.7 mi Calm Calm - N/A   Scattered Clouds
7:00 PM 53.6 °F - 44.6 °F 72% 30.06 in 3.7 mi Calm Calm - N/A   Unknown
7:30 PM 53.6 °F - 44.6 °F 72% 30.06 in 3.7 mi Calm Calm - N/A   Unknown
8:00 PM 53.6 °F - 42.8 °F 67% 30.09 in 3.7 mi Calm Calm - N/A   Unknown
8:30 PM 51.8 °F - 44.6 °F 76% 30.06 in 3.7 mi Calm Calm - N/A   Unknown
9:00 PM 53 °F - 44 °F 62% 30.09 in 4 mi WSW 3.5 mph - -   Clear
9:00 PM 51.8 °F - 42.8 °F 71% 30.06 in 3.7 mi WSW 3.5 mph - N/A   Unknown
9:30 PM 50.0 °F - 42.8 °F 76% 30.09 in 3.7 mi SW 3.5 mph - N/A   Unknown
10:00 PM 50.0 °F - 42.8 °F 76% 30.06 in 3.7 mi SSW 3.5 mph - N/A   Unknown
10:30 PM 48.2 °F - 44.6 °F 87% 30.09 in 3.7 mi WSW 4.6 mph - N/A   Unknown
11:00 PM 48.2 °F - 44.6 °F 87% 30.09 in 4.3 mi SW 6.9 mph - N/A   Unknown
11:30 PM 46.4 °F 44.3 °F 44.6 °F 93% 30.09 in 3.7 mi WSW 4.6 mph - N/A   Unknown